Location: Newark
(45.2500°N, 7.5833°E)
Time: 23:24:21
(UTC+00:00)

Vanguard 3 - Pass Details

Date: 01 February 2020
Orbit: 508 x 3263 km, 33.3° (Epoch: 23 February)

Event Time Altitude Azimuth Distance (km) Brightness Sun altitude
Rises 13:45:01 0° 216° (SW) 5,788 13.0 21.7°
Reaches altitude 10° 13:48:49 10° 208° (SSW) 5,120 13.4 21.4°
Maximum altitude 14:02:57 38° 148° (SSE) 4,124 11.2 20.0°
Drops below altitude 10° 14:19:56 10° 90° (E) 6,150 11.3 18.2°
Sets 14:25:01 0° 84° (E) 7,034 11.5 17.6°
